TimeEST,TemperatureF,Dew PointF,Humidity,Sea Level PressureIn,VisibilityMPH,Wind Direction,Wind SpeedMPH,Gust SpeedMPH,PrecipitationIn,Events,Conditions,WindDirDegrees,DateUTC
12:35 AM,32.2,28.6,87,30.06,10.0,Calm,Calm,-,N/A,,Mostly Cloudy,0,2013-03-05 05:35:00
12:55 AM,32.7,29.3,87,30.05,10.0,Calm,Calm,-,N/A,,Overcast,0,2013-03-05 05:55:00
1:35 AM,33.6,30.7,89,30.04,10.0,Calm,Calm,-,N/A,,Overcast,0,2013-03-05 06:35:00
1:55 AM,33.8,31.6,92,30.03,10.0,Calm,Calm,-,N/A,,Overcast,0,2013-03-05 06:55:00
2:15 AM,34.7,31.6,89,30.02,10.0,Calm,Calm,-,N/A,,Overcast,0,2013-03-05 07:15:00
2:35 AM,35.6,32.0,87,30.01,10.0,Calm,Calm,-,N/A,,Overcast,0,2013-03-05 07:35:00
3:15 AM,36.0,32.0,86,30.00,10.0,Calm,Calm,-,N/A,,Overcast,0,2013-03-05 08:15:00
3:55 AM,36.7,32.5,85,29.99,10.0,Calm,Calm,-,N/A,,Overcast,0,2013-03-05 08:55:00
4:15 AM,36.9,32.2,83,29.98,10.0,Calm,Calm,-,N/A,,Overcast,0,2013-03-05 09:15:00
4:35 AM,37.0,33.4,87,29.98,10.0,Calm,Calm,-,N/A,Rain,Light Rain,0,2013-03-05 09:35:00
4:55 AM,37.0,33.8,88,29.98,10.0,Calm,Calm,-,N/A,,Light Drizzle,0,2013-03-05 09:55:00
5:15 AM,37.0,35.2,93,29.98,10.0,Calm,Calm,-,N/A,,Drizzle,0,2013-03-05 10:15:00
6:15 AM,37.0,35.6,95,29.98,7.0,Calm,Calm,-,0.03,Rain,Light Rain,0,2013-03-05 11:15:00
6:35 AM,37.0,36.5,98,29.97,4.0,Calm,Calm,-,0.08,Rain,Rain,0,2013-03-05 11:35:00
6:55 AM,37.4,36.5,97,29.97,3.0,Calm,Calm,-,0.11,Rain,Rain,0,2013-03-05 11:55:00
7:15 AM,37.4,36.5,97,29.97,4.0,Calm,Calm,-,0.03,Rain,Rain,0,2013-03-05 12:15:00
7:35 AM,37.6,37.0,98,29.97,4.0,Calm,Calm,-,0.11,Rain,Light Rain,0,2013-03-05 12:35:00
8:15 AM,38.3,37.8,98,29.97,2.0,Calm,Calm,-,0.04,Rain,Rain,0,2013-03-05 13:15:00
8:35 AM,38.5,38.3,99,29.97,2.5,Calm,Calm,-,0.04,Rain,Light Rain,0,2013-03-05 13:35:00
8:55 AM,39.2,38.7,98,29.96,2.5,Calm,Calm,-,0.04,Rain,Light Rain,0,2013-03-05 13:55:00
9:15 AM,39.2,38.7,98,29.96,2.0,Calm,Calm,-,N/A,Rain,Rain,0,2013-03-05 14:15:00
9:35 AM,39.4,39.0,99,29.94,1.2,Calm,Calm,-,0.01,Rain,Light Rain,0,2013-03-05 14:35:00
9:55 AM,39.6,39.2,99,29.93,1.5,Calm,Calm,-,0.01,,Light Drizzle,0,2013-03-05 14:55:00
10:15 AM,39.7,39.4,99,29.93,1.2,Calm,Calm,-,N/A,,Drizzle,0,2013-03-05 15:15:00
10:35 AM,40.3,40.1,99,29.92,1.5,Calm,Calm,-,0.01,Rain,Light Rain,0,2013-03-05 15:35:00
10:55 AM,40.5,40.1,99,29.90,1.8,Calm,Calm,-,0.01,Rain,Rain,0,2013-03-05 15:55:00
11:15 AM,40.6,40.3,99,29.89,2.0,Calm,Calm,-,0.01,Rain,Light Rain,0,2013-03-05 16:15:00
11:35 AM,41.0,40.8,99,29.88,2.0,Calm,Calm,-,0.01,,Light Drizzle,0,2013-03-05 16:35:00
11:55 AM,41.9,41.4,98,29.88,3.0,Calm,Calm,-,0.01,,Overcast,0,2013-03-05 16:55:00
12:15 PM,41.9,41.4,98,29.87,4.0,Calm,Calm,-,N/A,,Overcast,0,2013-03-05 17:15:00
12:35 PM,42.3,41.7,98,29.86,3.0,Calm,Calm,-,0.02,Rain,Rain,0,2013-03-05 17:35:00
1:15 PM,43.7,43.0,97,29.82,5.0,Calm,Calm,-,N/A,Rain,Rain,0,2013-03-05 18:15:00
1:35 PM,43.9,43.3,98,29.80,3.0,Calm,Calm,-,N/A,Rain,Light Rain,0,2013-03-05 18:35:00
1:55 PM,43.9,43.3,98,29.79,2.5,Calm,Calm,-,0.03,Rain,Light Rain,0,2013-03-05 18:55:00
2:15 PM,44.1,43.7,99,29.76,2.5,Calm,Calm,-,N/A,,Drizzle,0,2013-03-05 19:15:00
2:35 PM,44.6,44.2,99,29.74,3.0,Calm,Calm,-,N/A,Rain,Light Rain,0,2013-03-05 19:35:00
2:55 PM,45.5,45.0,98,29.72,5.0,Calm,Calm,-,N/A,,Overcast,0,2013-03-05 19:55:00
3:15 PM,45.1,44.6,98,29.70,2.0,NNW,3.5,-,N/A,Rain,Rain,330,2013-03-05 20:15:00
3:35 PM,45.5,45.1,99,29.69,1.5,NW,4.6,-,0.05,Rain,Heavy Rain,310,2013-03-05 20:35:00
3:55 PM,46.9,46.6,99,29.67,2.0,SW,5.8,-,0.09,Rain,Rain,220,2013-03-05 20:55:00
4:15 PM,49.1,48.6,98,29.64,1.8,NNE,5.8,-,N/A,Rain,Heavy Rain,20,2013-03-05 21:15:00
4:35 PM,50.7,49.5,95,29.67,3.0,West,5.8,-,0.06,Rain,Heavy Rain,260,2013-03-05 21:35:00
4:55 PM,52.3,50.5,94,29.67,5.0,WSW,3.5,-,0.16,Rain,Rain,240,2013-03-05 21:55:00
5:15 PM,52.7,46.6,80,29.70,3.0,West,16.1,29.9,0.11,Rain,Light Rain,260,2013-03-05 22:15:00
5:35 PM,51.6,47.5,86,29.70,10.0,SSW,5.8,-,0.11,Rain,Light Rain,210,2013-03-05 22:35:00
5:55 PM,52.0,45.7,79,29.71,10.0,WSW,15.0,24.2,0.11,,Overcast,240,2013-03-05 22:55:00
6:15 PM,51.4,44.6,77,29.71,10.0,WSW,15.0,28.8,N/A,,Overcast,240,2013-03-05 23:15:00
6:35 PM,50.9,43.9,77,29.71,10.0,West,13.8,21.9,N/A,,Overcast,260,2013-03-05 23:35:00
6:55 PM,50.7,42.4,73,29.73,10.0,West,23.0,33.4,N/A,,Overcast,270,2013-03-05 23:55:00
7:15 PM,49.3,39.2,68,29.74,10.0,West,20.7,26.5,N/A,,Mostly Cloudy,260,2013-03-06 00:15:00
7:35 PM,47.1,39.6,75,29.75,10.0,WSW,17.3,-,N/A,Rain,Light Rain,250,2013-03-06 00:35:00
7:55 PM,45.7,38.7,76,29.77,10.0,West,17.3,27.6,N/A,Rain,Light Rain,260,2013-03-06 00:55:00
8:15 PM,43.9,37.0,77,29.77,10.0,WSW,11.5,16.1,N/A,,Overcast,250,2013-03-06 01:15:00
8:35 PM,42.6,35.2,75,29.80,10.0,WNW,11.5,19.6,N/A,Rain,Light Rain,300,2013-03-06 01:35:00
8:55 PM,38.8,32.0,76,29.84,10.0,WNW,19.6,31.1,N/A,,Overcast,290,2013-03-06 01:55:00
9:15 PM,37.0,33.3,86,29.85,10.0,West,8.1,-,N/A,Rain,Light Rain,260,2013-03-06 02:15:00
9:35 PM,35.6,31.1,84,29.87,7.0,NW,9.2,29.9,N/A,,Drizzle,320,2013-03-06 02:35:00
9:55 PM,35.2,29.8,81,29.86,10.0,WSW,6.9,-,N/A,,Overcast,250,2013-03-06 02:55:00
10:15 PM,35.1,29.1,79,29.85,10.0,West,5.8,-,N/A,,Overcast,260,2013-03-06 03:15:00
10:35 PM,34.9,28.2,77,29.85,10.0,West,3.5,-,N/A,,Overcast,260,2013-03-06 03:35:00
10:55 PM,33.3,30.2,89,29.84,7.0,WSW,8.1,16.1,N/A,Snow,Light Snow,250,2013-03-06 03:55:00
11:15 PM,33.6,28.8,82,29.84,10.0,West,15.0,19.6,N/A,,Overcast,270,2013-03-06 04:15:00
11:35 PM,33.4,27.1,78,29.85,10.0,West,10.4,17.3,N/A,Snow,Light Snow,280,2013-03-06 04:35:00
11:55 PM,33.6,25.2,71,29.84,10.0,West,5.8,-,N/A,,Overcast,260,2013-03-06 04:55:00